Location: Estes Park
(40.3770°N, 105.5210°W)
Time: 22:18:20
(UTC-06:00)

Vanguard 2 Rocket - Visible Passes

Search period start: 18 July 2018 00:00
Search period end: 28 July 2018 00:00
Orbit: 554 x 3327 km, 32.9° (Epoch: 18 July)

Date Brightness Start Highest point End Pass type
(mag) Time Alt. Az. Time Alt. Az. Time Alt. Az.
18 Jul 8.1 04:00:15 24° SSW 04:04:04 42° SSE 04:14:31 10° E visible
19 Jul 8.1 03:04:05 29° SSE 03:04:50 29° SSE 03:12:31 10° E visible
19 Jul 8.3 05:10:30 10° WSW 05:17:48 56° S 05:30:50 10° E visible
20 Jul 8.9 02:07:57 15° ESE 02:07:57 15° ESE 02:10:31 10° ESE visible
20 Jul 8.0 04:13:45 22° SW 04:18:03 48° SSE 04:28:43 10° E visible
21 Jul 7.7 03:17:37 35° S 03:18:40 37° SSE 03:26:55 10° E visible
22 Jul 8.5 02:21:30 22° SE 02:21:30 22° SE 02:25:25 10° E visible
22 Jul 7.9 04:27:19 18° WSW 04:32:10 51° S 04:42:49 10° ESE visible
23 Jul 7.4 03:31:14 37° SSW 03:32:42 43° SSE 03:41:11 10° E visible
24 Jul 8.1 02:35:11 28° SE 02:35:11 28° SE 02:39:54 10° E visible
24 Jul 7.9 04:40:59 14° WSW 04:46:22 50° S 04:56:48 10° ESE visible
25 Jul 7.3 03:44:59 36° SW 03:46:51 46° S 03:55:19 10° ESE visible
26 Jul 7.7 02:49:00 33° SE 02:49:00 33° SE 02:54:11 10° ESE visible
26 Jul 8.0 04:54:50 11° WSW 05:00:35 44° S 05:10:35 10° ESE visible
27 Jul 9.1 01:53:04 11° ESE 01:53:04 11° ESE 01:53:28 10° ESE visible
27 Jul 7.4 03:58:54 31° SW 04:01:04 43° S 04:09:18 10° ESE visible
